MIDAS 3 DEB, 6215

Orbit data source: Space-Track

MIDAS 3 DEB, 6215 is space debris in LEO originally from a launch on Wed, 12 Jul 1961 UTC launched from the Air Force Western Test Range (AFWTR). Debris objects in space refer to the collection of defunct objects orbiting the Earth. Examples of debris include non-operational satellites, rocket bodies, and fragments generated from explosions, collisions, or faulty payload assembly.

Loading next visibility...
Identifier
6215, 1961-018E
Orbit
LEO
Country
Flag of USUS
Related business
Manufacturer
Unknown
Mission
Spacecraft
Bus & Motor
Unknown
Mass
Unknown
Launch date (UTC)
1961-07-12 (64 years ago)
Launch vehicle
Unknown
Launch site
Air Force Western Test Range (AFWTR)
Object type
Payload
Rocket body
Debris
Shape & HBR
Unknown
Radar Cross Section
Medium (>0.1 m² and <1 m²)

Expand to show TLE details & history
Last TLE update: 1 week ago

TLE from 1 week ago
0 MIDAS 3 DEB
1 06215U 61018E   25253.79329143  .00000050  00000-0  17378-1 0  9997
2 06215  91.1099 191.5311 0060777 154.1344 206.2586  8.90941271355031
Epoch: 2025-09-10T19:02Z
TLE epoch observation values (Epoch: 2025-09-10T19:02:20.379Z)
Latitude
-0.00002°
Longitude
-84.11842°
Altitude
3,506.594 km
Speed
6.334 km/s
True Right ascension
12h 46m 07s
True Declination
0° 00' 00"
Sunlit
Object was in daylight at epoch
Visualization orbit readout
Latitude
Unknown
Longitude
Unknown
Altitude
Unknown
Speed
Unknown
Apparent Right ascension
Unknown
Apparent Declination
Unknown
Sunlit
N/A
Visualization observer readout
Local Sidereal Time
23:08:22
Azimuth
Unknown
Elevation
Unknown
Doppler factor
Unknown
Orbital elements
Apogee altitude
3,508.199 km
Perigee altitude
3,388.753 km
Semi-major axis
9,826.613 km
Eccentricity
0.00608
Inclination
91.1099°
RAAN
191.5311°
Arg. of periapsis
154.1344°
True anomaly
205.95256°
Mean anomaly
206.2586°
Eccentric anomaly
206.10537°
Mean motion
2.22811 °/min
Orbital period
161.57 mins
BSTAR
0.017378
Loading maneuver chart data...
Computing Atmospheric mass density...
Loading historical data...
Loading historical data...
Loading historical data...
Loading historical data...
Loading historical data...
Loading historical data...
Loading historical data...
Other satellites on launch #18 in the year 1961 (1961-07-12 UTC)

Documentation

Showing up to 5 results
|